This is the latest recevied weather packets stored in our database for station/object KB3HLL. If no packets are shown the sender has not sent any weather packets the latest 1 day(s).
| Time | Temp. | Humidity | Pressure | Rain* | Wind** | Luminosity | Snow |
|---|---|---|---|---|---|---|---|
| 1778047577 | 18.33° C | 62% | 1010.2 hPa | 0 mm | - | 0 W/m² | - |
| 1778046980 | 18.33° C | 62% | 1010.2 hPa | 0 mm | - | 0 W/m² | - |
| 1778046380 | 18.33° C | 60% | 1010.4 hPa | 0 mm | - | 0 W/m² | - |
| 1778046080 | 18.33° C | 61% | 1010.5 hPa | 0 mm | - | 0 W/m² | - |
| 1778045178 | 18.33° C | 64% | 1010.7 hPa | 0 mm | - | 0 W/m² | - |
| 1778044878 | 18.33° C | 65% | 1010.7 hPa | 0 mm | - | 0 W/m² | - |
| 1778044280 | 18.33° C | 67% | 1010.7 hPa | 0 mm | - | 0 W/m² | - |
| 1778043978 | 18.33° C | 68% | 1010.7 hPa | 0 mm | - | 0 W/m² | - |
| 1778043681 | 18.33° C | 68% | 1010.7 hPa | 0 mm | - | 0 W/m² | - |
| 1778043378 | 18.33° C | 69% | 1010.7 hPa | 0 mm | - | 0 W/m² | - |
| 1778042777 | 18.33° C | 67% | 1010.7 hPa | 0 mm | - | 0 W/m² | - |
| 1778042478 | 18.33° C | 68% | 1010.8 hPa | 0 mm | - | 0 W/m² | - |
| 1778041578 | 18.33° C | 69% | 1010.8 hPa | 0 mm | - | 0 W/m² | - |
| 1778041277 | 18.33° C | 68% | 1010.8 hPa | 0 mm | - | 0 W/m² | - |
| 1778040977 | 18.33° C | 68% | 1010.9 hPa | 0 mm | - | 0 W/m² | - |
| 1778040678 | 18.33° C | 68% | 1010.8 hPa | 0 mm | - | 0 W/m² | - |
| 1778040378 | 18.33° C | 69% | 1010.8 hPa | 0 mm | - | 0 W/m² | - |
| 1778040078 | 18.33° C | 70% | 1010.6 hPa | 0 mm | - | 0 W/m² | - |
| 1778039778 | 18.33° C | 71% | 1010.7 hPa | 0 mm | - | 0 W/m² | - |
| 1778039481 | 18.33° C | 71% | 1010.7 hPa | 0 mm | - | 0 W/m² | - |
| 1778039178 | 18.89° C | 70% | 1010.7 hPa | 0 mm | - | 0 W/m² | - |
| 1778038877 | 18.89° C | 68% | 1010.8 hPa | 0 mm | - | 0 W/m² | - |
| 1778038578 | 18.89° C | 67% | 1010.9 hPa | 0 mm | - | 0 W/m² | - |
| 1778038280 | 18.89° C | 68% | 1010.9 hPa | 0 mm | - | 0 W/m² | - |
| 1778037978 | 18.89° C | 68% | 1011.1 hPa | 0 mm | - | 0 W/m² | - |
* Rain latest hour (hover to see other rain measurements)
** Current wind speed in m/s (hover to see current wind gust speed)